| time (UTC) | temp C | wind direction | speed KPH | gust KPH | rain 1hr cm | rain 24hr cm | rain mn cm | humidity % | barometer mb |
| 20260510031513 | 10 | 219 | 0.0 | 0.0 | 0.05 | 1.12 | 1.12 | 96 | 1010.8 |
| 20260510030001 | 10 | 219 | 0.0 | 0.0 | 0.05 | 1.12 | 1.12 | 95 | 1010.9 |
| 20260510024557 | 10 | 219 | 0.0 | 0.0 | 0.03 | 1.09 | 1.09 | 96 | 1011.3 |
| 20260510023033 | 10 | 219 | 0.0 | 0.0 | 0.00 | 1.07 | 1.07 | 96 | 1011.6 |
| 20260510021601 | 10 | 219 | 0.0 | 0.0 | 0.00 | 1.07 | 1.07 | 95 | 1011.8 |
| 20260510020024 | 11 | 219 | 0.0 | 0.0 | 0.00 | 1.07 | 1.07 | 95 | 1011.9 |
| 20260510014623 | 11 | 219 | 0.0 | 0.0 | 0.00 | 1.07 | 1.07 | 95 | 1012.1 |
| 20260510013049 | 11 | 219 | 0.0 | 0.0 | 0.00 | 1.07 | 1.07 | 95 | 1012.1 |
| 20260510011512 | 11 | 220 | 0.0 | 0.0 | 0.03 | 1.07 | 1.07 | 95 | 1012.2 |
| 20260510010106 | 11 | 216 | 0.0 | 0.0 | 0.03 | 1.07 | 1.07 | 95 | 1012.2 |
| 20260510004524 | 11 | 211 | 0.0 | 0.0 | 0.03 | 1.07 | 1.07 | 96 | 1012.2 |
| 20260510003126 | 11 | 208 | 0.0 | 0.0 | 0.05 | 1.07 | 1.07 | 96 | 1012.2 |
| 20260510001545 | 12 | 225 | 0.0 | 0.0 | 0.03 | 1.04 | 1.04 | 96 | 1012.1 |
| 20260510000006 | 12 | 227 | 0.0 | 0.0 | 0.08 | 1.04 | 1.04 | 95 | 1012.1 |
| 20260509234632 | 12 | 215 | 0.0 | 0.0 | 0.18 | 1.04 | 1.04 | 95 | 1012.1 |
| 20260509233050 | 12 | 217 | 0.0 | 0.0 | 0.30 | 1.02 | 1.02 | 95 | 1012.1 |
| 20260509231513 | 12 | 218 | 0.0 | 0.0 | 0.46 | 1.02 | 1.02 | 95 | 1012.0 |
| 20260509230109 | 12 | 216 | 0.0 | 0.0 | 0.61 | 0.97 | 0.97 | 95 | 1012.0 |
| 20260509224548 | 12 | 206 | 0.0 | 0.0 | 0.58 | 0.86 | 0.86 | 95 | 1011.9 |
| 20260509223011 | 12 | 242 | 0.0 | 0.0 | 0.51 | 0.71 | 0.71 | 94 | 1011.9 |
| 20260509221550 | 12 | 236 | 0.0 | 0.0 | 0.41 | 0.56 | 0.56 | 94 | 1011.7 |
| 20260509220009 | 12 | 238 | 0.0 | 0.0 | 0.28 | 0.36 | 0.36 | 94 | 1011.4 |
| 20260509214627 | 12 | 220 | 0.0 | 0.0 | 0.20 | 0.28 | 0.28 | 93 | 1011.3 |
| 20260509213101 | 12 | 216 | 0.0 | 0.0 | 0.13 | 0.20 | 0.20 | 92 | 1011.4 |
| 20260509211506 | 13 | 167 | 0.0 | 0.0 | 0.05 | 0.13 | 0.13 | 89 | 1011.3 |
| 20260509210104 | 13 | 206 | 0.0 | 0.0 | 0.00 | 0.08 | 0.08 | 84 | 1010.9 |
| 20260509204512 | 13 | 218 | 0.0 | 0.0 | 0.00 | 0.08 | 0.08 | 83 | 1010.5 |
| 20260509203104 | 13 | 217 | 0.0 | 0.0 | 0.00 | 0.08 | 0.08 | 85 | 1010.8 |
| 20260509201522 | 14 | 243 | 0.0 | 0.0 | 0.00 | 0.08 | 0.08 | 81 | 1010.8 |
| 20260509200112 | 15 | 219 | 0.0 | 0.0 | 0.00 | 0.08 | 0.08 | 77 | 1010.9 |
| 20260509194544 | 15 | 227 | 0.0 | 0.0 | 0.00 | 0.08 | 0.08 | 75 | 1010.9 |
| 20260509193006 | 15 | 217 | 0.0 | 0.0 | 0.00 | 0.08 | 0.08 | 76 | 1010.9 |
| 20260509191604 | 15 | 236 | 0.0 | 0.0 | 0.00 | 0.08 | 0.08 | 76 | 1011.0 |
| 20260509190026 | 15 | 273 | 0.0 | 0.0 | 0.00 | 0.08 | 0.08 | 77 | 1011.1 |
| 20260509184615 | 14 | 217 | 0.0 | 0.0 | 0.00 | 0.08 | 0.08 | 79 | 1011.1 |
| 20260509183023 | 14 | 277 | 0.0 | 0.0 | 0.00 | 0.08 | 0.08 | 79 | 1011.3 |
| 20260509181611 | 13 | 205 | 0.0 | 0.0 | 0.00 | 0.08 | 0.08 | 83 | 1011.3 |
| 20260509180024 | 13 | 226 | 0.0 | 0.0 | 0.00 | 0.08 | 0.08 | 83 | 1011.4 |
| 20260509174626 | 13 | 226 | 0.0 | 0.0 | 0.00 | 0.08 | 0.08 | 83 | 1011.8 |
| 20260509173052 | 13 | 238 | 0.0 | 0.0 | 0.00 | 0.08 | 0.08 | 79 | 1012.4 |
| 20260509171507 | 14 | 203 | 0.0 | 0.0 | 0.00 | 0.08 | 0.08 | 76 | 1012.2 |
| 20260509170058 | 14 | 206 | 0.0 | 0.0 | 0.00 | 0.08 | 0.08 | 73 | 1012.0 |
| 20260509164524 | 14 | 223 | 0.0 | 0.0 | 0.00 | 0.08 | 0.08 | 74 | 1011.9 |
| 20260509163117 | 14 | 222 | 0.0 | 0.0 | 0.00 | 0.08 | 0.08 | 74 | 1012.2 |
| 20260509161600 | 14 | 112 | 0.0 | 0.0 | 0.00 | 0.08 | 0.08 | 76 | 1012.0 |
| 20260509160020 | 14 | 259 | 0.0 | 0.0 | 0.00 | 0.08 | 0.08 | 80 | 1012.2 |
| 20260509154629 | 13 | 238 | 0.0 | 0.0 | 0.00 | 0.08 | 0.08 | 81 | 1012.4 |
| 20260509153041 | 12 | 217 | 0.0 | 0.0 | 0.00 | 0.08 | 0.08 | 87 | 1012.6 |
| 20260509151502 | 11 | 155 | 0.0 | 0.0 | 0.00 | 0.08 | 0.08 | 93 | 1012.7 |
| 20260509150055 | 11 | 264 | 0.0 | 0.0 | 0.00 | 0.08 | 0.08 | 96 | 1012.7 |
| 20260509144544 | 10 | 266 | 0.0 | 0.0 | 0.00 | 0.08 | 0.08 | 96 | 1012.6 |
| 20260509143135 | 10 | 292 | 0.0 | 0.0 | 0.00 | 0.08 | 0.08 | 97 | 1013.2 |
| 20260509141552 | 9 | 292 | 0.0 | 0.0 | 0.00 | 0.08 | 0.08 | 97 | 1013.1 |
| 20260509140010 | 8 | 293 | 0.0 | 0.0 | 0.00 | 0.08 | 0.08 | 97 | 1013.4 |
| 20260509134554 | 8 | 292 | 0.0 | 0.0 | 0.00 | 0.08 | 0.08 | 97 | 1013.5 |
| 20260509133058 | 7 | 292 | 0.0 | 0.0 | 0.03 | 0.08 | 0.08 | 97 | 1013.7 |
| 20260509131543 | 7 | 292 | 0.0 | 0.0 | 0.03 | 0.08 | 0.08 | 97 | 1013.9 |
| 20260509130039 | 6 | 292 | 0.0 | 0.0 | 0.03 | 0.08 | 0.08 | 96 | 1013.9 |
| 20260509124535 | 6 | 292 | 0.0 | 0.0 | 0.03 | 0.08 | 0.08 | 96 | 1014.0 |
| 20260509123034 | 5 | 292 | 0.0 | 0.0 | 0.00 | 0.05 | 0.05 | 96 | 1013.8 |
| 20260509121537 | 5 | 292 | 0.0 | 0.0 | 0.05 | 0.05 | 0.05 | 96 | 1013.9 |
| 20260509120034 | 5 | 292 | 0.0 | 0.0 | 0.05 | 0.05 | 0.05 | 96 | 1013.9 |
| 20260509114527 | 5 | 293 | 0.0 | 0.0 | 0.05 | 0.05 | 0.05 | 95 | 1014.0 |
| 20260509113027 | 4 | 292 | 0.0 | 0.0 | 0.05 | 0.05 | 0.05 | 95 | 1014.4 |
| 20260509111526 | 3 | 292 | 0.0 | 0.0 | 0.00 | 0.00 | 0.00 | 95 | 1014.6 |
| 20260509110025 | 3 | 292 | 0.0 | 0.0 | 0.00 | 0.00 | 0.00 | 94 | 1014.6 |
| 20260509104523 | 3 | 292 | 0.0 | 0.0 | 0.00 | 0.00 | 0.00 | 94 | 1014.4 |
| 20260509103022 | 3 | 292 | 0.0 | 0.0 | 0.00 | 0.00 | 0.00 | 94 | 1014.4 |
| 20260509101520 | 2 | 292 | 0.0 | 0.0 | 0.00 | 0.00 | 0.00 | 94 | 1013.7 |
| 20260509100017 | 2 | 292 | 0.0 | 0.0 | 0.00 | 0.00 | 0.00 | 93 | 1013.4 |
| 20260509094516 | 2 | 292 | 0.0 | 0.0 | 0.00 | 0.00 | 0.00 | 93 | 1013.1 |
| 20260509093016 | 2 | 292 | 0.0 | 0.0 | 0.00 | 0.00 | 0.00 | 93 | 1012.9 |
| 20260509091525 | 1 | 292 | 0.0 | 0.0 | 0.00 | 0.00 | 0.00 | 93 | 1012.9 |
| 20260509090013 | 1 | 292 | 0.0 | 0.0 | 0.00 | 0.00 | 0.00 | 92 | 1013.1 |
| 20260509084519 | 1 | 292 | 0.0 | 0.0 | 0.00 | 0.00 | 0.00 | 92 | 1013.0 |
| 20260509083011 | 1 | 292 | 0.0 | 0.0 | 0.00 | 0.00 | 0.00 | 91 | 1012.9 |
| 20260509081511 | 1 | 292 | 0.0 | 0.0 | 0.00 | 0.00 | 0.00 | 91 | 1013.2 |
| 20260509080020 | 2 | 292 | 0.0 | 0.0 | 0.00 | 0.00 | 0.00 | 91 | 1013.3 |
| 20260509074508 | 2 | 292 | 0.0 | 0.0 | 0.00 | 0.00 | 0.00 | 91 | 1013.2 |
| 20260509073016 | 2 | 292 | 0.0 | 0.0 | 0.00 | 0.00 | 0.00 | 91 | 1013.3 |
| 20260509071505 | 2 | 292 | 0.0 | 0.0 | 0.00 | 0.00 | 0.00 | 90 | 1013.2 |
| 20260509070004 | 2 | 292 | 0.0 | 0.0 | 0.00 | 0.00 | 0.00 | 90 | 1013.3 |
| 20260509064503 | 2 | 292 | 0.0 | 0.0 | 0.00 | 0.00 | 0.00 | 90 | 1013.3 |
| 20260509063002 | 2 | 292 | 0.0 | 0.0 | 0.00 | 0.00 | 0.00 | 89 | 1013.3 |
| 20260509061501 | 2 | 292 | 0.0 | 0.0 | 0.00 | 0.00 | 0.00 | 88 | 1013.3 |
| 20260509060058 | 2 | 292 | 0.0 | 0.0 | 0.00 | 0.00 | 0.00 | 88 | 1013.1 |
| 20260509054603 | 2 | 292 | 0.0 | 0.0 | 0.00 | 0.00 | 0.00 | 87 | 1012.9 |
| 20260509053055 | 3 | 292 | 0.0 | 0.0 | 0.00 | 0.00 | 0.00 | 87 | 1013.0 |
| 20260509051559 | 3 | 292 | 0.0 | 0.0 | 0.00 | 0.00 | 0.00 | 87 | 1013.0 |
| 20260509050053 | 3 | 292 | 0.0 | 0.0 | 0.00 | 0.00 | 0.00 | 86 | 1013.1 |
| 20260509044551 | 3 | 292 | 0.0 | 0.0 | 0.00 | 0.00 | 0.00 | 86 | 1013.0 |
| 20260509043054 | 4 | 292 | 0.0 | 0.0 | 0.00 | 0.00 | 0.00 | 85 | 1013.1 |
| 20260509041544 | 4 | 292 | 0.0 | 0.0 | 0.00 | 0.00 | 0.00 | 84 | 1012.9 |
| 20260509040045 | 5 | 292 | 0.0 | 0.0 | 0.00 | 0.00 | 0.00 | 82 | 1012.6 |
| 20260509034540 | 5 | 292 | 0.0 | 0.0 | 0.00 | 0.00 | 0.00 | 81 | 1012.5 |
| 20260509033041 | 5 | 292 | 0.0 | 0.0 | 0.00 | 0.00 | 0.00 | 80 | 1012.5 |